Showing default

OV1-13, 3173

Orbit data source: Space-Track

OV1-13, 3173 is a payload satellite owned by USAF OAR (US) that was launched on Sat, 06 Apr 1968 UTC via an ATLAS F launch vehicle from the Air Force Western Test Range (AFWTR). Payload-class satellites include a variety of spacecraft equipped with specific instruments for various scientific and technological missions. These include communications satellites like Starlink; space stations such as the ISS; scientific satellites like the Hubble; Earth observation satellites from companies like Planet Labs, Umbra, and HawkEye 360; GPS; miniature CubeSats for education and research; and military/defense satellites.

Loading next visibility...
Identifier
3173, 1968-026A
Orbit
Active
Country
Flag of USUS
Related business
Manufacturer
GD/Convair
Mission
Spacecraft
Bus & Motor
OV1, Unknown motor
Mass
107 kg wet, 107 kg dry
Launch date (UTC)
1968-04-06 (58 years ago)
Launch vehicle
ATLAS F
Launch site
Air Force Western Test Range (AFWTR)
Object type
Payload
Rocket body
Debris
Shape & HBR
Unknown
Radar Cross Section
Medium (>0.1 m² and <1 m²)

Expand to show TLE details & history
Last TLE update: 1 day ago

TLE from 1 day ago
0 OV1-13
1 03173U 68026A   26125.57312980  .00000122  00000-0  18763-3 0  9990
2 03173  99.9479  20.6848 3853511 326.5553  14.1870  7.25846560535115
Epoch: 2026-05-05T13:45Z
TLE epoch observation values (Epoch: 2026-05-05T13:45:18.414Z)
Latitude
-0.00008°
Longitude
-49.08795°
Altitude
886.605 km
Speed
8.625 km/s
True Right ascension
01h 22m 44s
True Declination
0° 00' 00"
Sunlit
Object was in daylight at epoch
Visualization orbit readout
Latitude
Unknown
Longitude
Unknown
Altitude
Unknown
Speed
Unknown
Apparent Right ascension
Unknown
Apparent Declination
Unknown
Sunlit
N/A
Visualization observer readout
Local Sidereal Time
08:41:11
Azimuth
Unknown
Elevation
Unknown
Doppler factor
Unknown
Orbital elements
Apogee altitude
9,228.577 km
Perigee altitude
546.208 km
Semi-major axis
11,265.53 km
Eccentricity
0.38535
Inclination
99.9479°
RAAN
20.6848°
Arg. of periapsis
326.5553°
True anomaly
33.55697°
Mean anomaly
14.187°
Eccentric anomaly
22.71151°
Mean motion
1.81516 °/min
Orbital period
198.33 mins
BSTAR
0.00018763
Loading maneuver chart data...
Computing Atmospheric mass density...
Loading historical data...
Loading historical data...
Loading historical data...
Loading historical data...
Loading historical data...
Loading historical data...
Loading historical data...
Other satellites on launch #26 in the year 1968 (1968-04-06 UTC)

Documentation

Showing up to 5 results
|